Retour au catalogue

DELTA 1 DEB

ActifLEO
NORAD 7044·DEBRIS·🇺🇸 United States

Lancé Nov 6, 1973 depuis Vandenberg Space Force Base

Loading…

Prochains Passages (prochaines 24 heures)

TLE

FraisSource: Space-Track

Époque: Sep 14, 2026, 15:02 UTC

1 07044U 73086AL  26257.62705212 -.00000021  00000-0  18635-3 0  9996
2 07044 102.4815 133.3020 0089504  87.8521 301.2915 12.44540057400396

Suivez DELTA 1 DEB en temps réel avec AllMySat

Download on the App Store